Погода в Якше

Россия / Республика Коми     61°49′29″N   56°49′15″E
темп.,
°C
ветер,
м/с
пор.,
м/с
влажн.,
%
обл.,
%
осадки,
мм/ч
давл.,
гПа
погр.,
м
16 июня, ср
ср1600:00+12юв256342 0.0 101287
03:00+12ююв245814 0.0 101291
06:00+17ю3756100 0.0 1010260
09:00+21ю266192 0.0 1009678
12:00+25ююз694789 0.0 10071646
15:00+22з38655 1.0 1006839
18:00+18зюз3783100 0.9 1004432
21:00+16ююв1398100 2.6 1003141
17 июня, чт
чт1700:00+13зсз4796100 9.4 1005718
03:00+11ссз499565 9.7 1007641
06:00+12ссз478455 0.1 1009796
09:00+14ссз4651100 0.1 10101309
12:00+16ссз4539100 0.0 10111699
15:00+16с5635100 0.0 10121849
18:00+15ссв483952 0.0 10141888
21:00+9с12585 0.0 101611
18 июня, пт
пт1800:00+7ссз11635 0.0 101811
03:00+7зсз23665 0.0 101962
06:00+13сз34449 0.0 1020476
09:00+16зсз453399 0.0 10191961
12:00+16зсз4732100 0.0 10192570
15:00+15з5745100 0.0 10181837
18:00+11зюз3872100 0.1 10181024
21:00+10зюз378077 0.1 1017568
19 июня, сб
сб1900:00+8зсз129493 0.0 101861
03:00+8зсз1195100 0.0 101819
06:00+10ююв2382100 0.0 1018230
09:00+13ю347698 0.0 1016438
12:00+14ююз2782100 0.1 1016529
15:00+14ююв4897100 1.9 1013255
18:00+14ююв31097100 0.6 1012321
21:00+14ююз499780 1.3 1012238
20 июня, вс
вс2000:00+16зсз4139874 0.1 1013555
03:00+13ссз3119715 0.1 1016650
06:00+12с478488 0.1 1019797
09:00+14ссз35635 0.1 1020789
12:00+20ссз24395 0.0 10191275
15:00+22сз23335 0.0 10181529
18:00+21зюз1242100 0.0 1018472
21:00+15ююв265930 0.0 1016100